#timestamp,LO_Frequency,Hit,StdDev 
1593482415.7,286047001.9,N
1593482435.5,286047005.8,Y
1593482455.3,286047001.0,P
1593482475.2,286047000.5,N
1593482495.0,286046999.5,N
1593482495.9,286046999.5,N
1593482515.8,286046995.8,Y
1593482535.6,286046998.2,P
1593482555.4,286047001.6,N
1593482575.3,286047002.4,N
1593482595.1,286046994.8,Y
1593482615.9,286046995.2,P
1593482635.7,286046995.9,N
1593482655.5,286046995.8,N
1593482675.4,286046993.4,Y
1593482695.2,286047000.6,P
1593482715.0,286046998.7,N
1593482715.9,286046998.7,N
1593482735.8,286046999.3,N
1593482755.6,286046997.8,N
1593482775.5,286046997.0,N
1593482795.3,286046998.4,N
1593482815.1,286047000.1,N
1593482835.9,286046997.0,N
1593482855.7,286046996.8,N
1593482875.6,286046998.0,N
1593482895.4,286046996.3,Y
1593482915.2,286046996.6,P
1593482935.1,286046997.6,N
1593482936.0,286046997.6,P
1593482955.8,286046997.0,Y
1593482975.7,286047000.2,P
1593482995.5,286047002.3,N
1593483015.3,286047001.3,N
1593483035.2,286047002.3,N
1593483055.0,286047000.0,N
1593483055.9,286047000.0,N
1593483075.7,286047002.5,N
1593483095.6,286047001.4,N
1593483115.4,286047002.4,N
1593483135.3,286047005.4,Y
1593483155.1,286047005.5,P
1593483175.8,286047004.9,N
1593483195.7,286047003.4,N
1593483215.5,286047003.4,N
1593483235.4,286047003.6,N
1593483255.2,286047005.6,Y
1593483275.0,286047002.2,P
1593483275.9,286047002.2,P
1593483295.8,286047000.6,N
1593483315.6,286047000.4,N
1593483335.5,286047000.6,N
1593483355.3,286047000.3,N
1593483375.1,286046998.5,N
1593483395.9,286047000.7,N
1593483415.7,286047002.2,N
1593483435.5,286047000.8,N
1593483455.4,286046995.0,Y
1593483475.2,286046993.5,P
1593483495.1,286046996.8,N
1593483496.0,286046996.8,N
1593483515.8,286046993.4,N
1593483535.7,286046996.9,N
1593483555.5,286046998.6,N
1593483575.3,286046999.0,N
1593483595.2,286046998.4,N
1593483615.0,286046998.3,N
1593483615.9,286046998.3,N
1593483635.7,286046999.4,N
1593483655.6,286046999.5,N
1593483675.4,286046996.8,N
1593483695.3,286046997.4,N
1593483715.1,286046997.4,N
1593483735.8,286046996.1,N
1593483755.7,286046996.1,N
1593483775.5,286046993.5,Y
1593483795.4,286046995.6,P
1593483815.2,286046995.2,P
1593483835.0,286046994.4,P
1593483835.9,286046994.4,Y
1593483855.8,286047001.0,P
1593483875.6,286046999.0,N
1593483895.5,286047001.7,N
1593483915.3,286047002.5,N
1593483935.1,286047002.0,N
1593483955.9,286047000.7,N
1593483975.7,286047001.0,N
1593483995.6,286047001.9,N
1593484015.4,286047002.0,N
1593484035.2,286047004.3,N
1593484055.1,286047003.4,N
1593484056.0,286047003.4,N
1593484075.8,286047001.8,N
1593484095.6,286047000.1,N
1593484115.5,286047000.7,N
1593484135.3,286047001.3,N
1593484155.2,286047003.4,N
1593484175.9,286047003.3,N
1593484195.7,286047002.5,N
1593484215.6,286047001.6,N
1593484235.4,286047002.6,N
1593484255.2,286047004.4,N
1593484275.1,286047002.4,N
1593484276.0,286047002.4,N
1593484295.8,286047002.8,N
1593484315.7,286046998.2,N
1593484335.5,286046998.3,N
1593484355.3,286047001.0,N
1593484375.2,286047000.5,N
1593484395.0,286046999.2,N
1593484395.9,286046999.2,N
1593484415.8,286046998.9,N
1593484435.6,286046996.6,N
1593484455.4,286046998.1,N
1593484475.3,286047001.1,N
1593484495.1,286046998.1,N
1593484515.8,286047001.2,N
1593484535.7,286046999.0,N
1593484555.5,286046998.8,N
1593484575.4,286046998.9,N
1593484595.2,286046999.0,N
1593484615.1,286046998.2,N
1593484616.0,286046998.2,N
1593484635.8,286046998.7,N
1593484655.6,286046998.8,N
1593484675.5,286046998.1,N
1593484695.3,286047001.2,N
1593484715.1,286047002.6,N
1593484735.9,286047002.2,N
1593484755.7,286047002.7,N
1593484775.6,286047002.3,N
1593484795.4,286047001.8,N
1593484815.2,286047004.3,N
1593484835.1,286047002.5,N
1593484836.0,286047002.5,N
1593484855.8,286047002.5,N
1593484875.7,286047002.5,N
1593484895.5,286047002.2,N
1593484915.3,286047006.9,Y
1593484935.2,286047007.4,P
1593484955.0,286047003.9,N
1593484955.9,286047003.9,N
1593484975.7,286047003.0,N
1593484995.6,286047007.1,Y
1593485015.4,286046998.1,P
1593485035.3,286046998.5,N
1593485055.1,286047002.7,N
1593485075.8,286046998.8,N
1593485095.7,286046999.1,N
1593485115.5,286046999.1,N
1593485135.4,286046998.6,N
1593485155.2,286046999.1,N
1593485175.0,286046998.7,N
1593485175.9,286046998.7,N
1593485195.8,286046999.1,N
1593485215.6,286046998.1,N
1593485235.5,286047002.2,N
1593485255.3,286046999.7,N
1593485275.1,286047000.0,N
1593485295.9,286046998.2,N
1593485315.7,286047000.9,N
1593485335.6,286047000.0,N
1593485355.4,286047000.8,N
1593485375.2,286046999.1,N
1593485395.1,286046998.1,N
1593485396.0,286046998.1,N
1593485415.8,286047000.6,N
1593485435.7,286047002.5,N
1593485455.5,286047002.0,N
1593485475.3,286047002.6,N
1593485495.2,286047003.8,N
1593485515.0,286047000.5,N
1593485515.9,286047000.5,N
1593485535.7,286046998.4,N
1593485555.6,286047002.2,N
1593485575.4,286047002.0,N
1593485595.3,286047003.7,N
1593485615.1,286047003.1,N
1593485616.0,286047003.1,N
1593485635.8,286047003.8,N
1593485655.7,286047001.8,N
1593485675.5,286046999.9,N
1593485695.4,286046998.9,N
1593485715.2,286046999.0,N
1593485735.0,286047000.8,N
1593485735.9,286047000.8,N
1593485755.8,286046998.4,N
1593485775.6,286046996.9,N
1593485795.5,286046997.1,N
1593485815.3,286046998.9,N
1593485835.1,286046998.7,N
1593485855.9,286046999.2,N
1593485875.7,286046999.5,N
1593485895.6,286046996.8,N
1593485915.4,286046999.3,N
1593485935.2,286047002.4,N
1593485955.1,286046998.1,N
1593485956.0,286046998.1,N
1593485975.8,286046998.4,N
1593485995.6,286046998.5,N
